{"data":{"norad_id":62451,"epoch":"2026-09-21T20:29:05.293536Z","epoch_age_seconds":58013,"freshness":"FRESH","line1":"1 62451U 24251V   26264.85353349  .00016094  00000+0  48635-3 0  9990","line2":"2 62451  53.1588 141.1893 0001685  87.6547 272.4649 15.34406093 97650","mean_motion":15.34406093,"eccentricity":0.0001685,"inclination_deg":53.1588,"raan_deg":141.1893,"arg_perigee_deg":87.6547,"mean_anomaly_deg":272.4649,"bstar":0.00048635,"rev_number":9765,"period_min":93.84738541963,"perigee_km":461.53245205799,"apogee_km":463.83780911599,"semimajor_km":6840.822130587,"source":"CELESTRAK","updated_at":"2026-09-22T09:00:49.583629Z"}}